Weather History for KAQW - November, 2013

Change the Weather History Date:

Thursday, November 7, 2013

  Actual Average Record
Temperature  
Mean Temperature 49 °F -  
Max Temperature 59 °F 47 °F 66 °F (1996)
Min Temperature 37 °F 30 °F 21 °F (2002)
Degree Days  
Heating Degree Days 16    
Moisture  
Dew Point 41 °F    
Average Humidity 74    
Maximum Humidity 94    
Minimum Humidity 51    
Precipitation  
Precipitation 0.27 in - - ()
Sea Level Pressure  
Sea Level Pressure 29.83 in    
Wind  
Wind Speed 9 mph (West)    
Max Wind Speed 21 mph    
Max Gust Speed 26 mph    
Visibility 8 miles    
Events Rain    
Averages and records for this station are not official NWS values.
T = Trace of Precipitation, MM = Missing Value Source: NWS Daily Summary

Daily Weather History Graph

Daily Weather History Graph

Search for Another Location

Airport or City:

Trip Planner

Search our weather history database for the weather conditions in past years. The results will help you decide how hot, cold, wet, or windy it might be!

Date:

Astronomy

Nov. 07, 2013 Rise Set
Actual Time 6:34 AM EST 4:37 PM EST
Civil Twilight 6:04 AM EST 5:07 PM EST
Nautical Twilight 5:30 AM EST 5:41 PM EST
Astronomical Twilight 4:57 AM EST 6:14 PM EST
Moon 10:42 AM EST (11/7) 8:45 PM EST (11/7)
Length of Visible Light 11h 02m
Length of Day
10h 03m
Waxing Crescent, 22% of the Moon is Illuminated
Nov 7
Waxing Crescent
Nov 10
First Quarter
Nov 17
Full
Nov 25
Last Quarter
Dec 2
New

Hourly Weather History & Observations

Time (EST) Temp. Windchill Dew Point Humidity Pressure Visibility Wind Dir Wind Speed Gust Speed Precip Events Conditions
12:52 AM 57.9 °F - 44.1 °F 60% 29.95 in 10.0 mi SW 13.8 mph 21.9 mph N/A   Partly Cloudy
1:52 AM 57.9 °F - 44.1 °F 60% 29.92 in 10.0 mi Variable 5.8 mph - N/A   Mostly Cloudy
2:52 AM 59.0 °F - 43.0 °F 55% 29.89 in 10.0 mi SSW 10.4 mph 18.4 mph N/A   Overcast
3:52 AM 59.0 °F - 43.0 °F 55% 29.87 in 10.0 mi SW 10.4 mph 23.0 mph N/A   Overcast
4:52 AM 59.0 °F - 44.1 °F 58% 29.86 in 10.0 mi SW 13.8 mph 24.2 mph N/A   Overcast
5:52 AM 59.0 °F - 46.0 °F 62% 29.81 in 10.0 mi West 4.6 mph 21.9 mph N/A   Overcast
6:52 AM 55.0 °F - 52.0 °F 89% 29.81 in 5.0 mi Variable 5.8 mph - 0.00 in Rain Light Rain
7:01 AM 55.4 °F - 51.8 °F 88% 29.80 in 8.0 mi Variable 5.8 mph - 0.00 in   Overcast
7:35 AM 55.4 °F - 51.8 °F 88% 29.80 in 1.8 mi West 8.1 mph 17.3 mph 0.03 in Rain Rain
7:45 AM 55.4 °F - 53.6 °F 94% 29.79 in 2.0 mi Variable 4.6 mph - 0.04 in Rain Light Rain
7:52 AM 55.0 °F - 52.0 °F 89% 29.80 in 2.5 mi West 4.6 mph - 0.05 in Rain Light Rain
8:05 AM 55.4 °F - 53.6 °F 94% 29.79 in 3.0 mi Variable 4.6 mph - 0.02 in Rain Light Rain
8:14 AM 55.4 °F - 53.6 °F 94% 29.80 in 2.5 mi NW 4.6 mph - 0.04 in Rain Rain
8:28 AM 55.4 °F - 53.6 °F 94% 29.80 in 3.0 mi Variable 5.8 mph - 0.06 in Rain Light Rain
8:52 AM 55.0 °F - 53.1 °F 93% 29.80 in 3.0 mi WNW 5.8 mph - 0.10 in Rain Light Rain
9:52 AM 53.1 °F - 48.9 °F 86% 29.83 in 10.0 mi West 10.4 mph 19.6 mph 0.05 in Rain Light Rain
10:15 AM 51.8 °F - 46.4 °F 82% 29.82 in 10.0 mi West 9.2 mph - 0.00 in Rain Light Rain
10:52 AM 50.0 °F - 46.9 °F 89% 29.84 in 10.0 mi West 8.1 mph - 0.00 in Rain Light Rain
11:52 AM 48.0 °F - 43.0 °F 83% 29.81 in 9.0 mi Variable 4.6 mph 16.1 mph 0.04 in Rain Light Rain
12:52 PM 46.9 °F - 41.0 °F 80% 29.79 in 10.0 mi WNW 5.8 mph - 0.00 in   Overcast
1:52 PM 45.0 °F 41.2 °F 41.0 °F 86% 29.82 in 6.0 mi WSW 6.9 mph - 0.03 in Rain Light Rain
2:34 PM 44.6 °F 41.4 °F 37.4 °F 76% 29.81 in 10.0 mi WNW 5.8 mph 16.1 mph 0.00 in   Overcast
2:44 PM 44.6 °F 40.7 °F 37.4 °F 76% 29.82 in 10.0 mi West 6.9 mph - 0.00 in   Overcast
2:52 PM 45.0 °F 41.2 °F 37.0 °F 74% 29.82 in 10.0 mi WNW 6.9 mph - 0.00 in   Overcast
3:21 PM 44.6 °F 38.4 °F 35.6 °F 71% 29.79 in 10.0 mi West 12.7 mph - N/A   Mostly Cloudy
3:52 PM 45.0 °F 36.9 °F 35.1 °F 68% 29.80 in 10.0 mi West 20.7 mph 26.5 mph N/A   Partly Cloudy
4:52 PM 43.0 °F 35.7 °F 33.1 °F 68% 29.82 in 10.0 mi West 15.0 mph 25.3 mph N/A   Clear
5:52 PM 44.1 °F 37.1 °F 30.9 °F 60% 29.83 in 10.0 mi West 15.0 mph - N/A   Overcast
6:52 PM 43.0 °F 36.0 °F 28.0 °F 56% 29.85 in 10.0 mi West 13.8 mph 24.2 mph N/A   Overcast
7:52 PM 43.0 °F 36.8 °F 26.1 °F 51% 29.85 in 10.0 mi West 11.5 mph - N/A   Overcast
8:52 PM 41.0 °F 32.5 °F 28.9 °F 62% 29.87 in 10.0 mi West 17.3 mph 25.3 mph N/A   Overcast
9:52 PM 39.9 °F 32.5 °F 26.1 °F 58% 29.88 in 10.0 mi West 12.7 mph 24.2 mph N/A   Mostly Cloudy
10:52 PM 39.0 °F 31.4 °F 24.1 °F 55% 29.87 in 10.0 mi WSW 12.7 mph - N/A   Partly Cloudy
11:52 PM 37.0 °F 31.0 °F 23.0 °F 57% 29.88 in 10.0 mi West 8.1 mph - N/A   Scattered Clouds